EW9957 Weather Reports


Display with metric or nautical units.
time (UTC)temp
F
wind
direction
speed
MPH
gust
MPH
rain 1hr
in
rain 24hr
in
rain mn
in
humidity
%
barometer
mb
20260503032602 61 36 2.0 4.0 0.00 0.00 0.00 85 1013.0
20260503032520 61 36 2.0 4.0 0.00 0.00 0.00 85 1013.0
20260503032035 61 37 3.0 4.0 0.00 0.00 0.00 85 1013.0
20260503031558 61 36 3.0 5.0 0.00 0.00 0.00 85 1012.8
20260503031051 60 35 3.0 5.0 0.00 0.00 0.00 85 1012.9
20260503030605 61 35 3.0 5.0 0.00 0.00 0.00 85 1012.9
20260503030522 61 35 3.0 5.0 0.00 0.00 0.00 85 1012.9
20260503030046 61 35 2.0 5.0 0.00 0.00 0.00 84 1012.8
20260503025520 61 36 4.0 5.0 0.00 0.00 0.00 85 1012.8
20260503025035 61 34 3.0 7.0 0.00 0.00 0.00 85 1012.7
20260503024559 61 37 4.0 7.0 0.00 0.00 0.00 84 1012.7
20260503024516 61 37 4.0 7.0 0.00 0.00 0.00 84 1012.7
20260503024034 61 36 3.0 6.0 0.00 0.00 0.00 84 1012.6
20260503023529 61 34 4.0 8.0 0.00 0.00 0.00 84 1012.7
20260503023053 61 35 4.0 8.0 0.00 0.00 0.00 84 1012.6
20260503022607 61 38 4.0 7.0 0.00 0.00 0.00 83 1012.7
20260503022040 62 34 4.0 7.0 0.00 0.00 0.00 83 1012.6
20260503021541 62 37 4.0 7.0 0.00 0.00 0.00 83 1012.5
20260503021111 62 35 3.0 8.0 0.00 0.00 0.00 83 1012.5
20260503021029 62 35 3.0 8.0 0.00 0.00 0.00 83 1012.5
20260503020544 62 35 5.0 8.0 0.00 0.00 0.00 83 1012.5
20260503020108 62 36 4.0 6.0 0.00 0.00 0.00 83 1012.4
20260503020026 62 36 4.0 6.0 0.00 0.00 0.00 83 1012.4
20260503015521 62 35 4.0 8.0 0.00 0.00 0.00 83 1012.5
20260503015037 62 35 5.0 8.0 0.00 0.00 0.00 83 1012.5
20260503014601 62 32 5.0 10.0 0.00 0.00 0.00 83 1012.5
20260503014114 62 32 6.0 10.0 0.00 0.00 0.00 83 1012.5
20260503014032 62 32 6.0 10.0 0.00 0.00 0.00 83 1012.5
20260503013607 62 37 5.0 8.0 0.00 0.00 0.00 83 1012.5
20260503013026 62 35 5.0 8.0 0.00 0.00 0.00 83 1012.4
20260503012520 62 34 4.0 7.0 0.00 0.00 0.00 83 1012.2
20260503012037 62 35 4.0 8.0 0.00 0.00 0.00 82 1012.3
20260503011600 63 35 5.0 8.0 0.00 0.00 0.00 81 1012.3
20260503011013 64 36 3.0 8.0 0.00 0.00 0.00 80 1012.3
20260503010528 63 36 4.0 8.0 0.00 0.00 0.00 82 1012.3
20260503010029 63 35 5.0 9.0 0.00 0.00 0.00 83 1012.4
20260503005605 63 35 5.0 9.0 0.00 0.00 0.00 81 1012.3
20260503005018 64 35 4.0 10.0 0.00 0.00 0.00 82 1012.3
20260503004540 64 32 6.0 10.0 0.00 0.00 0.00 80 1012.3
20260503004115 64 35 6.0 10.0 0.00 0.00 0.00 78 1012.3
20260503004032 64 35 6.0 10.0 0.00 0.00 0.00 78 1012.3
20260503003529 65 38 5.0 11.0 0.00 0.00 0.00 78 1012.4
20260503003013 64 36 7.0 11.0 0.00 0.00 0.00 80 1012.5
20260503002608 65 36 6.0 10.0 0.00 0.00 0.00 78 1012.5
20260503002526 65 36 6.0 10.0 0.00 0.00 0.00 78 1012.5
20260503002101 65 35 6.0 10.0 0.00 0.00 0.00 79 1012.5
20260503001521 65 35 7.0 10.0 0.00 0.00 0.00 77 1012.4
20260503001057 65 35 8.0 11.0 0.00 0.00 0.00 77 1012.4
20260503001015 65 35 8.0 11.0 0.00 0.00 0.00 77 1012.4
20260503000531 65 36 8.0 13.0 0.00 0.00 0.00 78 1012.5
20260503000037 65 38 8.0 12.0 0.00 0.00 0.00 77 1012.3
20260502235553 66 34 7.0 12.0 0.00 0.00 0.00 76 1012.3
20260502235107 66 35 7.0 12.0 0.00 0.00 0.00 77 1012.5
20260502234547 66 36 7.0 11.0 0.00 0.00 0.00 76 1012.5
20260502234041 67 32 6.0 10.0 0.00 0.00 0.00 75 1012.3
20260502233555 66 34 5.0 11.0 0.00 0.00 0.00 75 1012.3
20260502233015 65 32 6.0 11.0 0.00 0.00 0.00 78 1012.3
20260502232550 65 32 7.0 12.0 0.00 0.00 0.00 78 1012.5
20260502232104 66 35 7.0 11.0 0.00 0.00 0.00 76 1012.5
20260502231612 66 35 6.0 11.0 0.00 0.00 0.00 77 1012.6
20260502231529 66 35 6.0 11.0 0.00 0.00 0.00 77 1012.6
20260502231024 65 38 7.0 13.0 0.00 0.00 0.00 78 1012.6
20260502230600 65 35 7.0 16.0 0.00 0.00 0.00 78 1012.6
20260502230517 65 35 7.0 16.0 0.00 0.00 0.00 78 1012.6
20260502225556 65 35 7.0 15.0 0.00 0.00 0.00 77 1012.8
20260502225513 65 35 7.0 15.0 0.00 0.00 0.00 77 1012.8
20260502225029 66 35 9.0 15.0 0.00 0.00 0.00 77 1012.8
20260502224530 65 37 8.0 15.0 0.00 0.00 0.00 78 1012.8
20260502224105 65 35 11.0 16.0 0.00 0.00 0.00 76 1012.9
20260502223540 67 36 9.0 15.0 0.00 0.00 0.00 76 1012.9
20260502223023 67 32 9.0 15.0 0.00 0.00 0.00 74 1013.0
20260502222518 68 35 8.0 14.0 0.00 0.00 0.00 76 1013.2
20260502222053 66 32 8.0 14.0 0.00 0.00 0.00 75 1013.4
20260502221535 67 35 8.0 13.0 0.00 0.00 0.00 74 1013.4
20260502221109 67 35 8.0 14.0 0.00 0.00 0.00 75 1013.4
20260502221027 67 35 8.0 14.0 0.00 0.00 0.00 75 1013.4
20260502220523 67 37 8.0 14.0 0.00 0.00 0.00 74 1013.4
20260502220024 68 35 7.0 12.0 0.00 0.00 0.00 73 1013.4
20260502215539 68 35 6.0 15.0 0.00 0.00 0.00 76 1013.5
20260502215035 66 35 9.0 15.0 0.00 0.00 0.00 76 1013.5
20260502214518 67 32 8.0 14.0 0.00 0.00 0.00 74 1013.6
20260502214017 67 34 10.0 14.0 0.00 0.00 0.00 76 1013.7
20260502213513 68 35 8.0 18.0 0.00 0.00 0.00 74 1013.7
20260502213057 68 35 10.0 18.0 0.00 0.00 0.00 74 1013.9
20260502213015 68 35 10.0 18.0 0.00 0.00 0.00 74 1013.9
20260502212606 68 34 10.0 14.0 0.00 0.00 0.00 74 1014.0
20260502212039 68 35 8.0 14.0 0.00 0.00 0.00 74 1013.8
20260502211612 68 35 10.0 15.0 0.00 0.00 0.00 73 1013.8
20260502211530 68 35 10.0 15.0 0.00 0.00 0.00 73 1013.8
20260502211046 68 36 9.0 15.0 0.00 0.00 0.00 73 1013.8
20260502210601 68 36 9.0 14.0 0.00 0.00 0.00 74 1013.7
20260502210114 68 34 9.0 14.0 0.00 0.00 0.00 74 1013.7
20260502210031 68 34 9.0 14.0 0.00 0.00 0.00 74 1013.7
20260502205547 69 32 9.0 15.0 0.00 0.00 0.00 73 1013.8
20260502205041 68 34 8.0 15.0 0.00 0.00 0.00 73 1013.7
20260502204605 69 36 9.0 14.0 0.00 0.00 0.00 73 1013.9
20260502204018 69 35 9.0 14.0 0.00 0.00 0.00 72 1013.9
20260502203614 69 35 10.0 14.0 0.00 0.00 0.00 70 1013.9
20260502203531 69 35 10.0 14.0 0.00 0.00 0.00 70 1013.9
20260502203055 70 35 5.0 9.0 0.00 0.00 0.00 72 1013.9
20260502202548 69 35 5.0 11.0 0.00 0.00 0.00 71 1013.8
20260502202044 70 32 5.0 11.0 0.00 0.00 0.00 73 1013.7
20260502201526 68 35 5.0 13.0 0.00 0.00 0.00 74 1013.8
20260502201041 67 36 8.0 13.0 0.00 0.00 0.00 75 1014.0
20260502200555 68 34 7.0 12.0 0.00 0.00 0.00 74 1014.1
20260502200037 68 35 7.0 14.0 0.00 0.00 0.00 75 1014.2
20260502195531 68 35 9.0 14.0 0.00 0.00 0.00 75 1014.3
20260502195049 68 36 7.0 13.0 0.00 0.00 0.00 74 1014.4
20260502194530 69 34 6.0 14.0 0.00 0.00 0.00 73 1014.2
20260502194026 69 36 7.0 14.0 0.00 0.00 0.00 72 1014.2
20260502193522 69 35 5.0 13.0 0.00 0.00 0.00 72 1014.2
20260502193107 69 38 7.0 13.0 0.00 0.00 0.00 72 1014.4
20260502192541 69 34 3.0 10.0 0.00 0.00 0.00 70 1014.5
20260502192055 69 35 5.0 10.0 0.00 0.00 0.00 70 1014.8
20260502192013 69 35 5.0 10.0 0.00 0.00 0.00 70 1014.8
20260502191516 68 36 5.0 11.0 0.00 0.00 0.00 72 1014.9
20260502191012 67 36 7.0 11.0 0.00 0.00 0.00 72 1014.8
20260502190527 67 36 4.0 9.0 0.00 0.00 0.00 72 1014.9
20260502190049 68 35 4.0 9.0 0.00 0.00 0.00 72 1014.9
20260502185545 67 32 2.0 7.0 0.00 0.00 0.00 72 1014.9
20260502185100 67 38 3.0 9.0 0.00 0.00 0.00 73 1015.0
20260502185017 67 38 3.0 9.0 0.00 0.00 0.00 73 1015.0
20260502184540 68 36 5.0 9.0 0.00 0.00 0.00 73 1015.0
20260502184035 66 32 2.0 11.0 0.00 0.00 0.00 76 1015.1
20260502183609 65 32 5.0 11.0 0.00 0.00 0.00 76 1015.3
20260502183527 65 32 5.0 11.0 0.00 0.00 0.00 76 1015.3
20260502183047 67 38 5.0 11.0 0.00 0.00 0.00 74 1015.3
20260502182541 66 35 3.0 7.0 0.00 0.00 0.00 77 1015.4
20260502182037 65 34 2.0 5.0 0.00 0.00 0.00 78 1015.5
20260502181540 65 34 2.0 5.0 0.00 0.00 0.00 79 1015.5
20260502181054 64 37 3.0 5.0 0.00 0.00 0.00 79 1015.5
20260502181012 64 37 3.0 5.0 0.00 0.00 0.00 79 1015.5
20260502180547 65 35 3.0 5.0 0.00 0.00 0.00 80 1015.5
20260502164106 61 34 3.0 6.0 0.00 0.00 0.00 85 1016.1
20260502164024 61 34 3.0 6.0 0.00 0.00 0.00 85 1016.1
20260502163600 61 34 3.0 4.0 0.00 0.00 0.00 86 1016.0
20260502163108 62 35 2.0 4.0 0.00 0.00 0.00 85 1016.0
20260502162601 61 38 1.0 4.0 0.00 0.00 0.00 86 1015.9
20260502162015 61 35 2.0 4.0 0.00 0.00 0.00 86 1016.0
20260502161538 61 35 2.0 5.0 0.00 0.00 0.00 86 1016.1
20260502161112 61 35 2.0 5.0 0.00 0.00 0.00 86 1016.2
20260502161030 61 35 2.0 5.0 0.00 0.00 0.00 86 1016.2
20260502160546 61 35 2.0 4.0 0.00 0.00 0.00 86 1016.1
20260502152019 61 38 2.0 3.0 0.00 0.00 0.00 87 1016.0
20260502151523 61 36 2.0 5.0 0.00 0.00 0.00 87 1015.9
20260502151041 61 34 3.0 5.0 0.00 0.00 0.00 87 1015.9
20260502150537 61 36 3.0 5.0 0.00 0.00 0.00 86 1015.9
20260502130612 60 36 1.0 2.0 0.00 0.00 0.00 86 1015.2
20260502130529 60 36 1.0 2.0 0.00 0.00 0.00 86 1015.2
20260502123559 61 37 2.0 3.0 0.00 0.00 0.00 86 1014.9
20260502123111 61 35 1.0 3.0 0.00 0.00 0.00 86 1014.9
20260502123029 61 35 1.0 3.0 0.00 0.00 0.00 86 1014.9
20260502122525 61 35 1.0 3.0 0.00 0.00 0.00 86 1014.9
20260502122101 61 35 1.0 2.0 0.00 0.00 0.00 86 1014.9
20260502121524 61 35 1.0 1.0 0.00 0.00 0.00 86 1014.9
20260502121100 60 32 0.0 2.0 0.00 0.00 0.00 86 1014.8
20260502120613 60 38 1.0 2.0 0.00 0.00 0.00 86 1014.8
20260502115526 61 32 1.0 2.0 0.00 0.00 0.00 86 1014.8
20260502115022 61 34 1.0 2.0 0.00 0.00 0.00 87 1014.7
20260502114609 60 35 0.0 2.0 0.00 0.00 0.00 87 1014.7
20260502114042 61 36 0.0 1.0 0.00 0.00 0.00 87 1014.7
20260502113517 61 35 1.0 3.0 0.00 0.00 0.00 86 1014.7
20260502113102 61 34 1.0 3.0 0.00 0.00 0.00 87 1014.8
20260502113020 61 34 1.0 3.0 0.00 0.00 0.00 87 1014.8
20260502112537 60 36 1.0 4.0 0.00 0.00 0.00 87 1014.7
20260502112111 60 38 2.0 5.0 0.00 0.00 0.00 87 1014.7
20260502111532 60 35 3.0 5.0 0.00 0.00 0.00 87 1014.7
20260502111107 60 36 3.0 5.0 0.00 0.00 0.00 87 1014.7
20260502110520 60 34 2.0 3.0 0.00 0.00 0.00 87 1014.7
20260502110045 60 35 3.0 4.0 0.00 0.00 0.00 87 1014.6
20260502105559 61 34 2.0 4.0 0.00 0.00 0.00 87 1014.6
20260502105517 61 34 2.0 4.0 0.00 0.00 0.00 87 1014.6
20260502105033 61 35 3.0 5.0 0.00 0.00 0.00 86 1014.5
20260502104557 61 38 2.0 4.0 0.00 0.00 0.00 86 1014.5
20260502104030 61 36 2.0 5.0 0.00 0.00 0.00 86 1014.5
20260502103547 61 36 3.0 5.0 0.00 0.00 0.00 86 1014.5
20260502103048 61 32 2.0 4.0 0.00 0.00 0.00 86 1014.5
20260502102603 61 34 2.0 4.0 0.00 0.00 0.00 86 1014.4
20260502102016 61 35 1.0 4.0 0.00 0.00 0.00 86 1014.4
20260502101602 61 38 0.0 3.0 0.00 0.00 0.00 86 1014.4
20260502101014 61 35 2.0 3.0 0.00 0.00 0.00 86 1014.4
20260502100529 61 32 1.0 3.0 0.00 0.00 0.00 86 1014.3
20260502091525 60 37 0.0 3.0 0.00 0.00 0.00 87 1014.5
20260502091100 60 35 1.0 4.0 0.00 0.00 0.00 87 1014.4
20260502091018 60 35 1.0 4.0 0.00 0.00 0.00 87 1014.4
20260502090613 60 38 2.0 4.0 0.00 0.00 0.00 86 1014.4
20260502090530 60 38 2.0 4.0 0.00 0.00 0.00 86 1014.4
20260502071106 61 36 1.0 3.0 0.00 0.00 0.00 85 1015.2
20260502071024 61 36 1.0 3.0 0.00 0.00 0.00 85 1015.2
20260502070545 61 32 1.0 4.0 0.00 0.00 0.00 85 1015.3
20260502070028 61 34 2.0 4.0 0.00 0.00 0.00 84 1015.3
20260502065524 61 36 0.0 2.0 0.00 0.00 0.00 84 1015.3
20260502065019 61 38 1.0 3.0 0.00 0.00 0.00 84 1015.3
20260502064541 61 34 1.0 3.0 0.00 0.00 0.00 84 1015.3
20260502064015 61 35 2.0 3.0 0.00 0.00 0.00 84 1015.3
20260502063609 61 36 0.0 3.0 0.00 0.00 0.00 84 1015.3
20260502063027 61 38 2.0 4.0 0.00 0.00 0.00 84 1015.3
20260502062522 61 38 2.0 4.0 0.00 0.00 0.00 84 1015.2
20260502062017 61 36 2.0 3.0 0.00 0.00 0.00 84 1015.3
20260502061035 61 32 2.0 4.0 0.00 0.00 0.00 84 1015.2
20260502060529 62 37 1.0 4.0 0.00 0.00 0.00 84 1015.3
20260502060051 61 32 1.0 3.0 0.00 0.00 0.00 84 1015.3
20260502055605 61 36 2.0 4.0 0.00 0.00 0.00 84 1015.3
20260502055018 61 36 1.0 4.0 0.00 0.00 0.00 84 1015.3
20260502054543 61 38 2.0 3.0 0.00 0.00 0.00 83 1015.4
20260502054037 62 36 0.0 2.0 0.00 0.00 0.00 83 1015.3
20260502053611 62 35 0.0 3.0 0.00 0.00 0.00 83 1015.4
20260502053529 62 35 0.0 3.0 0.00 0.00 0.00 83 1015.4
20260502053053 62 34 1.0 3.0 0.00 0.00 0.00 84 1015.3
20260502052547 62 35 1.0 4.0 0.00 0.00 0.00 84 1015.4
20260502052043 61 35 2.0 5.0 0.00 0.00 0.00 84 1015.3
20260502051607 62 36 3.0 5.0 0.00 0.00 0.00 84 1015.3
20260502051524 62 36 3.0 5.0 0.00 0.00 0.00 84 1015.3
20260502051019 62 34 2.0 4.0 0.00 0.00 0.00 84 1015.3
20260502050515 62 35 2.0 4.0 0.00 0.00 0.00 83 1015.3
20260502050037 62 35 2.0 4.0 0.00 0.00 0.00 83 1015.3
20260502045551 62 36 2.0 4.0 0.00 0.00 0.00 83 1015.3
20260502045025 62 32 2.0 5.0 0.00 0.00 0.00 84 1015.3
20260502044525 62 35 3.0 5.0 0.00 0.00 0.00 84 1015.3
20260502044101 62 36 3.0 5.0 0.00 0.00 0.00 84 1015.3
20260502044018 62 36 3.0 5.0 0.00 0.00 0.00 84 1015.3
20260502043514 62 38 3.0 5.0 0.00 0.00 0.00 84 1015.3
20260502043038 61 35 4.0 5.0 0.00 0.00 0.00 84 1015.2
20260502042553 62 38 2.0 4.0 0.00 0.00 0.00 84 1015.2
20260502042046 62 36 2.0 6.0 0.00 0.00 0.00 84 1015.2
20260502041548 62 38 3.0 6.0 0.00 0.00 0.00 84 1015.1
20260502041023 61 34 3.0 6.0 0.00 0.00 0.00 84 1015.0
20260502040519 61 35 2.0 4.0 0.00 0.00 0.00 84 1015.0
20260502040105 61 38 2.0 4.0 0.00 0.00 0.00 83 1015.0
20260502040022 61 38 2.0 4.0 0.00 0.00 0.00 83 1015.0
20260502035540 61 35 1.0 3.0 0.00 0.00 0.00 84 1014.9
20260502035115 61 35 2.0 4.0 0.00 0.00 0.00 84 1014.8
20260502035032 61 35 2.0 4.0 0.00 0.00 0.00 84 1014.8
20260502034537 62 36 3.0 4.0 0.00 0.00 0.00 83 1014.7
20260502034032 62 35 2.0 4.0 0.00 0.00 0.00 82 1014.7
20260502033527 62 37 1.0 2.0 0.00 0.00 0.00 82 1014.5
20260502033026 62 36 1.0 3.0 0.00 0.00 0.00 83 1014.5